Change the Weather History Date:

Friday, November 25, 2011

  Actual Average Record
Temperature  
Mean Temperature 46 °F -  
Max Temperature 51 °F 40 °F 55 °F (1984)
Min Temperature 42 °F 25 °F -6 °F (1950)
Degree Days  
Heating Degree Days 18    
Moisture  
Dew Point 39 °F    
Average Humidity 71    
Maximum Humidity 76    
Minimum Humidity 62    
Precipitation  
Precipitation 0.00 in - - ()
Sea Level Pressure  
Sea Level Pressure 29.86 in    
Wind  
Wind Speed 12 mph (SSW)    
Max Wind Speed 17 mph    
Max Gust Speed 24 mph    
Visibility 10 miles    
Events      
Averages and records for this station are not official NWS values.
T = Trace of Precipitation, MM = Missing Value Source: NWS Daily Summary

Daily Weather History Graph

Daily Weather History Graph

Search for Another Location

Airport or City:

Trip Planner

Search our weather history database for the weather conditions in past years. The results will help you decide how hot, cold, wet, or windy it might be!

Date:

Astronomy

Nov. 25, 2011 Rise Set
Actual Time 6:58 AM CST 4:20 PM CST
Civil Twilight 6:26 AM CST 4:52 PM CST
Nautical Twilight 5:51 AM CST 5:27 PM CST
Astronomical Twilight 5:17 AM CST 6:01 PM CST
Moon 7:27 AM CST (11/25) 4:45 PM CST (11/25)
Length of Visible Light 10h 25m
Length of Day
9h 22m
New Moon, 0% of the Moon is Illuminated
Nov 25
New Moon
Dec 2
First Quarter
Dec 10
Full
Dec 17
Last Quarter
Dec 24
New

Hourly Weather History & Observations

Time (CST) Temp. Windchill Dew Point Humidity Pressure Visibility Wind Dir Wind Speed Gust Speed Precip Events Conditions
12:15 AM 46.4 °F 40.1 °F 39.2 °F 76% 29.91 in 10.0 mi SSW 15.0 mph 19.6 mph N/A   Clear
12:55 AM 46.4 °F 40.4 °F 39.2 °F 76% 29.91 in 10.0 mi SW 13.8 mph 19.6 mph N/A   Clear
1:15 AM 46.4 °F 41.1 °F 39.2 °F 76% 29.91 in 10.0 mi SSW 11.5 mph 18.4 mph N/A   Clear
1:35 AM 46.4 °F 39.8 °F 39.2 °F 76% 29.91 in 10.0 mi SW 16.1 mph 21.9 mph N/A   Clear
1:55 AM 46.4 °F 41.1 °F 37.4 °F 71% 29.91 in 10.0 mi SW 11.5 mph 18.4 mph N/A   Clear
2:15 AM 46.4 °F 39.5 °F 37.4 °F 71% 29.91 in 10.0 mi SW 17.3 mph 21.9 mph N/A   Clear
2:35 AM 46.4 °F 41.1 °F 37.4 °F 71% 29.90 in 10.0 mi SW 11.5 mph 18.4 mph N/A   Clear
2:55 AM 46.4 °F 41.1 °F 37.4 °F 71% 29.89 in 10.0 mi SSW 11.5 mph 19.6 mph N/A   Clear
3:15 AM 46.4 °F 41.1 °F 37.4 °F 71% 29.88 in 10.0 mi SSW 11.5 mph - N/A   Clear
3:35 AM 46.4 °F 40.7 °F 37.4 °F 71% 29.88 in 10.0 mi SSW 12.7 mph 18.4 mph N/A   Clear
4:15 AM 46.4 °F 40.7 °F 37.4 °F 71% 29.88 in 10.0 mi SSW 12.7 mph 20.7 mph N/A   Clear
4:35 AM 44.6 °F 39.2 °F 37.4 °F 76% 29.88 in 10.0 mi SSW 10.4 mph - N/A   Clear
4:55 AM 44.6 °F 38.8 °F 37.4 °F 76% 29.88 in 10.0 mi SSW 11.5 mph 19.6 mph N/A   Clear
5:15 AM 44.6 °F 38.1 °F 37.4 °F 76% 29.87 in 10.0 mi SSW 13.8 mph 18.4 mph N/A   Clear
5:35 AM 44.6 °F 38.1 °F 37.4 °F 76% 29.87 in 10.0 mi SSW 13.8 mph 19.6 mph N/A   Clear
5:55 AM 44.6 °F 38.4 °F 37.4 °F 76% 29.87 in 10.0 mi SSW 12.7 mph 17.3 mph N/A   Clear
6:15 AM 44.6 °F 38.8 °F 37.4 °F 76% 29.88 in 10.0 mi SSW 11.5 mph 17.3 mph N/A   Clear
6:35 AM 44.6 °F 39.2 °F 37.4 °F 76% 29.86 in 10.0 mi SSW 10.4 mph 17.3 mph N/A   Clear
6:55 AM 44.6 °F 38.4 °F 35.6 °F 71% 29.87 in 10.0 mi SSW 12.7 mph 17.3 mph N/A   Clear
7:15 AM 42.8 °F 38.0 °F 35.6 °F 76% 29.87 in 10.0 mi SSW 8.1 mph - N/A   Clear
7:55 AM 44.6 °F 38.4 °F 37.4 °F 76% 29.88 in 10.0 mi SW 12.7 mph - N/A   Clear
8:15 AM 44.6 °F 39.2 °F 37.4 °F 76% 29.88 in 10.0 mi SSW 10.4 mph 16.1 mph N/A   Clear
8:35 AM 44.6 °F 38.8 °F 37.4 °F 76% 29.88 in 10.0 mi SW 11.5 mph - N/A   Clear
8:55 AM 44.6 °F 38.4 °F 37.4 °F 76% 29.87 in 10.0 mi SSW 12.7 mph 19.6 mph N/A   Clear
9:15 AM 46.4 °F 40.4 °F 37.4 °F 71% 29.87 in 10.0 mi SSW 13.8 mph 24.2 mph N/A   Clear
9:35 AM 48.2 °F - 37.4 °F 66% 29.87 in 10.0 mi SW 16.1 mph - N/A   Clear
9:55 AM 48.2 °F - 37.4 °F 66% 29.86 in 10.0 mi SW 12.7 mph - N/A   Clear
10:15 AM 48.2 °F - 37.4 °F 66% 29.86 in 10.0 mi SW 12.7 mph 20.7 mph N/A   Clear
10:35 AM 50.0 °F - 37.4 °F 62% 29.86 in 10.0 mi SW 17.3 mph 24.2 mph N/A   Clear
10:55 AM 50.0 °F - 37.4 °F 62% 29.85 in 10.0 mi SW 15.0 mph 20.7 mph N/A   Clear
11:35 AM 50.0 °F - 37.4 °F 62% 29.83 in 10.0 mi SSW 17.3 mph - N/A   Clear
12:15 PM 51.8 °F - 39.2 °F 62% 29.81 in 10.0 mi SSW 13.8 mph 19.6 mph N/A   Clear
12:35 PM 51.8 °F - 39.2 °F 62% 29.80 in 10.0 mi SSW 13.8 mph - N/A   Clear
12:55 PM 51.8 °F - 39.2 °F 62% 29.80 in 10.0 mi SW 15.0 mph 20.7 mph N/A   Clear
1:15 PM 51.8 °F - 39.2 °F 62% 29.80 in 10.0 mi SSW 11.5 mph - N/A   Clear
1:35 PM 51.8 °F - 41.0 °F 67% 29.80 in 10.0 mi SSW 9.2 mph - N/A   Clear
2:15 PM 51.8 °F - 41.0 °F 67% 29.80 in 10.0 mi SSW 11.5 mph - N/A   Clear
2:35 PM 51.8 °F - 41.0 °F 67% 29.80 in 10.0 mi SW 12.7 mph 18.4 mph N/A   Clear
3:15 PM 50.0 °F - 41.0 °F 71% 29.82 in 10.0 mi SW 15.0 mph 21.9 mph N/A   Overcast
3:35 PM 50.0 °F - 41.0 °F 71% 29.81 in 10.0 mi SW 10.4 mph 16.1 mph N/A   Overcast
3:55 PM 50.0 °F - 41.0 °F 71% 29.83 in 10.0 mi SW 10.4 mph 17.3 mph N/A   Overcast
4:35 PM 50.0 °F - 41.0 °F 71% 29.83 in 10.0 mi SSW 11.5 mph - N/A   Overcast
5:15 PM 50.0 °F - 41.0 °F 71% 29.83 in 10.0 mi SSW 5.8 mph - N/A   Overcast
5:55 PM 50.0 °F - 41.0 °F 71% 29.83 in 10.0 mi SSW 9.2 mph - N/A   Overcast
6:15 PM 50.0 °F - 41.0 °F 71% 29.83 in 10.0 mi SSW 5.8 mph - N/A   Overcast
6:35 PM 50.0 °F - 41.0 °F 71% 29.84 in 10.0 mi SSW 6.9 mph - N/A   Overcast
6:55 PM 50.0 °F - 41.0 °F 71% 29.84 in 10.0 mi SSW 5.8 mph - N/A   Overcast
7:35 PM 50.0 °F - 41.0 °F 71% 29.85 in 10.0 mi SW 8.1 mph - N/A   Overcast
7:55 PM 50.0 °F - 41.0 °F 71% 29.84 in 10.0 mi SSW 6.9 mph - N/A   Overcast
8:15 PM 50.0 °F - 41.0 °F 71% 29.85 in 10.0 mi SW 6.9 mph - N/A   Overcast
8:35 PM 50.0 °F - 41.0 °F 71% 29.85 in 10.0 mi SSW 6.9 mph - N/A   Overcast
8:55 PM 50.0 °F - 41.0 °F 71% 29.85 in 10.0 mi SSW 5.8 mph - N/A   Overcast
9:15 PM 50.0 °F - 41.0 °F 71% 29.85 in 10.0 mi SW 4.6 mph - N/A   Overcast
9:35 PM 50.0 °F - 41.0 °F 71% 29.85 in 10.0 mi South 5.8 mph - N/A   Overcast
10:15 PM 50.0 °F - 41.0 °F 71% 29.85 in 10.0 mi SSE 3.5 mph - N/A   Overcast
10:35 PM 50.0 °F - 41.0 °F 71% 29.85 in 10.0 mi South 3.5 mph - N/A   Overcast
10:55 PM 50.0 °F - 41.0 °F 71% 29.85 in 10.0 mi Calm Calm - N/A   Overcast
11:15 PM 48.2 °F - 41.0 °F 76% 29.85 in 10.0 mi ESE 3.5 mph - N/A   Overcast
11:35 PM 48.2 °F - 41.0 °F 76% 29.84 in 10.0 mi East 3.5 mph - N/A   Overcast
11:55 PM 48.2 °F - 42.8 °F 82% 29.84 in 10.0 mi Calm Calm - N/A   Overcast